Starlink 1797

operational
NORAD ID: 46698 Int'l Des: 2020-073 Owner: SPXS Country: US Constellation: starlink
LEOCIRCULAR

Über Starlink 1797

Beschreibung wird geladen...

Live-Position

3D-Globus wird geladen...

Nächste Überflüge

Höhenverlauf

Altitude vs Time

uPlot chart will show altitude changes over time

Zweizeiliger Elementsatz

1 46698U 20073AE 26061.55010953 .00047564 00000-0 75184-3 0 9992
2 46698 53.0459 243.2625 0003857 74.9425 285.2011 15.53016903296480
Epoch: 2. März 2026 • Age: 45 hours

Aktueller Status

Höhe 411.2 km
Geschwindigkeit 7.67 km/s
Subsatellitenpunkt 50.92°N, 119.81°W
Startdatum 18. Okt. 2020
Alter 5.3 years
Typ internet

Technische Details

Klassifizierung Payload
Masse 260.00 kg
Trockenmasse 248.00 kg
Gesamtmasse 260.00 kg
Länge 0.20 m
Durchmesser 2.80 m
Spannweite 9.00 m
Form Box + pan
Hersteller SPXS
Bus-Typ Starlink
Phasenstatus In Orbit
Besitzer/Staat SPXS/US

Große Konstellationen

Loading constellations...